Chicago DuPage, IL

3:35 PM CDT on May 28, 2017 (GMT -0500)
Du Page

Weather History for KDPA - December, 2012

Change the Weather History Date:

Monday, December 24, 2012

  Actual Average Record
Temperature  
Mean Temperature 29 °F 25 °F  
Max Temperature 31 °F 33 °F 41 °F (2015)
Min Temperature 26 °F 17 °F -5 °F (2000)
Degree Days  
Heating Degree Days 36 40  
Month to date heating degree days 675 885  
Since 1 July heating degree days 2104 2139  
Cooling Degree Days 0 0  
Month to date cooling degree days 0 0  
Year to date cooling degree days 1093 814  
Moisture  
Dew Point 25 °F    
Average Humidity 83    
Maximum Humidity 89    
Minimum Humidity 79    
Precipitation  
Precipitation T in 0.04 in 0.32 in (1997)
Month to date precipitation 1.48 1.42  
Year to date precipitation 21.33 36.61  
Sea Level Pressure  
Sea Level Pressure 29.94 in    
Wind  
Wind Speed 8 mph (North)    
Max Wind Speed 15 mph    
Max Gust Speed 21 mph    
Visibility 9 miles    
Events      
T = Trace of Precipitation, MM = Missing Value Source: NWS Daily Summary

Daily Weather History Graph

Daily Weather History Graph

Search for Another Location

Airport or City:

Trip Planner

Search our weather history database for the weather conditions in past years. The results will help you decide how hot, cold, wet, or windy it might be!

Date:

Astronomy

Dec. 24, 2012 Rise Set
Actual Time 7:18 AM CST 4:26 PM CST
Civil Twilight 6:47 AM CST 4:58 PM CST
Nautical Twilight 6:12 AM CST 5:33 PM CST
Astronomical Twilight 5:38 AM CST 6:07 PM CST
Moon 1:55 PM CST (12/24) 3:55 AM CST (12/24)
Length of Visible Light 10h 11m
Length of Day
9h 07m
Waxing Gibbous, 88% of the Moon is Illuminated
Dec 24
Waxing Gibbous
Dec 28
Full
Jan 4
Last Quarter
Jan 11
New
Jan 18
First Quarter

Hourly Weather History & Observations

Time (CST) Temp. Windchill Dew Point Humidity Pressure Visibility Wind Dir Wind Speed Gust Speed Precip Events Conditions
12:52 AM 28.0 °F 21.7 °F 24.1 °F 85% 29.95 in 10.0 mi NE 5.8 mph - N/A   Overcast
1:52 AM 28.0 °F 24.2 °F 25.0 °F 88% 29.93 in 9.0 mi NNE 3.5 mph - N/A   Overcast
2:52 AM 28.9 °F 22.8 °F 25.0 °F 85% 29.90 in 10.0 mi NNE 5.8 mph - N/A   Overcast
3:52 AM 28.9 °F 23.9 °F 26.1 °F 89% 29.88 in 10.0 mi NE 4.6 mph - N/A   Overcast
4:52 AM 30.0 °F 24.1 °F 26.1 °F 85% 29.91 in 10.0 mi NW 5.8 mph - N/A   Overcast
5:52 AM 28.9 °F 22.8 °F 25.0 °F 85% 29.90 in 9.0 mi NNW 5.8 mph - N/A   Overcast
6:52 AM 28.0 °F 20.8 °F 25.0 °F 88% 29.90 in 8.0 mi North 6.9 mph - N/A   Overcast
7:52 AM 28.0 °F 20.8 °F 25.0 °F 88% 29.89 in 7.0 mi North 6.9 mph - N/A   Overcast
8:23 AM 28.4 °F 20.4 °F 24.8 °F 86% 29.88 in 7.0 mi NNW 8.1 mph - N/A   Overcast
8:52 AM 28.9 °F 20.4 °F 25.0 °F 85% 29.90 in 7.0 mi North 9.2 mph - N/A   Overcast
9:16 AM 28.4 °F 19.7 °F 24.8 °F 86% 29.88 in 8.0 mi NNW 9.2 mph - N/A   Overcast
9:52 AM 28.9 °F 21.1 °F 25.0 °F 85% 29.91 in 7.0 mi North 8.1 mph - N/A   Overcast
10:16 AM 30.2 °F 22.6 °F 24.8 °F 80% 29.88 in 8.0 mi North 8.1 mph - N/A   Overcast
10:52 AM 30.0 °F 21.1 °F 25.0 °F 82% 29.91 in 8.0 mi NNW 10.4 mph - N/A   Overcast
11:00 AM 30.2 °F 22.6 °F 24.8 °F 80% 29.88 in 9.0 mi NNW 8.1 mph - N/A   Overcast
11:09 AM 30.2 °F 22.6 °F 26.6 °F 86% 29.87 in 9.0 mi NNW 8.1 mph - N/A   Overcast
11:16 AM 30.2 °F 23.4 °F 26.6 °F 86% 29.87 in 9.0 mi North 6.9 mph - N/A   Overcast
11:24 AM 30.2 °F 22.6 °F 24.8 °F 80% 29.87 in 8.0 mi North 8.1 mph - N/A   Overcast
11:44 AM 30.2 °F 21.3 °F 26.6 °F 86% 29.86 in 9.0 mi North 10.4 mph - N/A   Overcast
11:52 AM 30.0 °F 21.7 °F 26.1 °F 85% 29.89 in 9.0 mi North 9.2 mph - N/A   Overcast
12:52 PM 30.9 °F 22.8 °F 26.1 °F 82% 29.88 in 10.0 mi North 9.2 mph - 0.00 in   Overcast
1:52 PM 30.9 °F 21.7 °F 26.1 °F 82% 29.88 in 10.0 mi North 11.5 mph - N/A   Overcast
2:52 PM 30.9 °F 22.2 °F 26.1 °F 82% 29.91 in 10.0 mi North 10.4 mph - N/A   Overcast
3:37 PM 30.2 °F 20.8 °F 24.8 °F 80% 29.92 in 10.0 mi North 11.5 mph - N/A   Overcast
3:52 PM 30.0 °F 22.4 °F 25.0 °F 82% 29.95 in 10.0 mi North 8.1 mph - N/A   Overcast
4:20 PM 30.2 °F 22.6 °F 24.8 °F 80% 29.92 in 9.0 mi North 8.1 mph - 0.00 in   Overcast
4:52 PM 30.0 °F 21.7 °F 24.1 °F 79% 29.97 in 9.0 mi North 9.2 mph - 0.00 in   Overcast
5:52 PM 30.0 °F 22.4 °F 24.1 °F 79% 30.00 in 10.0 mi North 8.1 mph - N/A   Overcast
6:26 PM 30.2 °F 23.4 °F 24.8 °F 80% 29.99 in 10.0 mi NNW 6.9 mph - N/A   Overcast
6:47 PM 30.2 °F 22.6 °F 24.8 °F 80% 29.99 in 10.0 mi NNW 8.1 mph - N/A   Overcast
6:52 PM 30.0 °F 23.2 °F 24.1 °F 79% 30.02 in 10.0 mi NNW 6.9 mph - N/A   Overcast
7:52 PM 28.9 °F 19.8 °F 24.1 °F 82% 30.05 in 10.0 mi North 10.4 mph - N/A   Overcast
8:16 PM 28.4 °F 19.1 °F 23.0 °F 80% 30.03 in 10.0 mi NNW 10.4 mph - N/A   Overcast
8:52 PM 28.0 °F 18.6 °F 23.0 °F 81% 30.07 in 10.0 mi NNW 10.4 mph - N/A   Overcast
9:52 PM 28.0 °F 20.8 °F 23.0 °F 81% 30.09 in 10.0 mi NW 6.9 mph - N/A   Overcast
10:07 PM 28.4 °F 20.4 °F 23.0 °F 80% 30.06 in 10.0 mi NW 8.1 mph - N/A   Overcast
10:52 PM 27.0 °F 18.0 °F 21.9 °F 81% 30.11 in 10.0 mi NNW 9.2 mph - N/A   Overcast
11:52 PM 26.1 °F 17.6 °F 21.0 °F 81% 30.12 in 10.0 mi North 8.1 mph - N/A   Overcast